Simultaneous Nadir Overpasses (SNOs) Predictions

Prediction of SNOs between FY3D and TERRA Satellite Orbit:

Table of predicted SNOs for the next 14.0 days since TLE Epoch: 1/28/2024
Index Date (FY3D) Time (FY3D) Lat,Lon (FY3D) SZA (FY3D ) Date (TERRA) Time (TERRA) Lat,Lon (TERRA) SZA (TERRA ) Distance(km) Time Diff (sec)
1 01/29/2024 13:30:52 -74.89, 157.32 87.20 01/29/2024 13:31:14 -74.88, 157.41 87.21 2.57 22
2 01/29/2024 14:21:36 74.80, -35.11 92.70 01/29/2024 14:20:36 74.80, -35.15 92.70 1.02 60
3 02/01/2024 00:43:59 -74.94, -11.05 87.83 02/01/2024 00:45:05 -74.92, -10.99 87.85 2.17 66
4 02/01/2024 01:34:43 74.85, 156.51 92.07 02/01/2024 01:34:27 74.83, 156.44 92.05 3.23 16
5 02/03/2024 12:47:50 74.91, -11.89 91.43 02/03/2024 12:48:17 74.88, -11.92 91.40 3.35 27
6 02/03/2024 13:38:34 -74.85, 155.60 88.65 02/03/2024 13:37:41 -74.84, 155.61 88.66 1.40 53
7 02/06/2024 00:00:56 74.93, 179.82 90.71 02/06/2024 00:02:06 74.96, 179.77 90.73 3.03 70
8 02/06/2024 00:51:40 -74.87, -12.68 89.37 02/06/2024 00:51:31 -74.86, -12.81 89.37 3.69 9
9 02/08/2024 12:04:47 -74.94, 178.88 90.06 02/08/2024 12:05:20 -74.91, 178.82 90.09 3.37 33
10 02/08/2024 12:55:31 74.86, -13.59 89.85 02/08/2024 12:54:41 74.85, -13.67 89.84 2.73 50
11 02/10/2024 23:17:55 -75.07, 10.27 90.72 02/10/2024 23:19:07 -75.03, 10.64 90.77 11.54 72
12 02/11/2024 00:08:37 74.90, 178.07 89.10 02/11/2024 00:08:29 74.91, 178.01 89.11 2.30 8



Historial Predications of SNOs between FY3D and TERRA
